| time (UTC) | temp C | wind direction | speed KPH | gust KPH | rain 1hr cm | rain 24hr cm | rain mn cm | humidity % | barometer mb |
| 20260906050056 | 28 | 136 | 9.7 | 27.4 | 0.00 | 0.00 | 0.00 | 68 | 1013.2 |
| 20260906050020 | 28 | 209 | 9.7 | 25.7 | 0.00 | 0.00 | 0.00 | 69 | 1015.0 |
| 20260906044552 | 28 | 132 | 4.8 | 12.9 | 0.00 | 0.00 | 0.00 | 70 | 1013.4 |
| 20260906044506 | 28 | 155 | 4.8 | 12.9 | 0.00 | 0.00 | 0.00 | 70 | 1015.1 |
| 20260906043048 | 29 | 137 | 9.7 | 25.7 | 0.00 | 0.00 | 0.00 | 70 | 1013.3 |
| 20260906043006 | 29 | 171 | 12.9 | 22.5 | 0.00 | 0.00 | 0.00 | 70 | 1015.0 |
| 20260906041553 | 29 | 188 | 6.4 | 19.3 | 0.00 | 0.00 | 0.00 | 69 | 1013.3 |
| 20260906041505 | 29 | 190 | 6.4 | 19.3 | 0.00 | 0.00 | 0.00 | 69 | 1015.0 |
| 20260906040058 | 30 | 157 | 4.8 | 14.5 | 0.00 | 0.00 | 0.00 | 66 | 1013.1 |
| 20260906040004 | 30 | 164 | 4.8 | 14.5 | 0.00 | 0.00 | 0.00 | 67 | 1014.8 |
| 20260906034551 | 30 | 189 | 8.0 | 19.3 | 0.00 | 0.00 | 0.00 | 66 | 1013.0 |
| 20260906034503 | 30 | 192 | 8.0 | 19.3 | 0.00 | 0.00 | 0.00 | 66 | 1014.6 |
| 20260906033059 | 30 | 129 | 12.9 | 24.1 | 0.00 | 0.00 | 0.00 | 65 | 1012.7 |
| 20260906033009 | 30 | 139 | 14.5 | 24.1 | 0.00 | 0.00 | 0.00 | 65 | 1014.3 |
| 20260906031601 | 31 | 134 | 12.9 | 27.4 | 0.00 | 0.00 | 0.00 | 64 | 1012.2 |
| 20260906031502 | 31 | 112 | 12.9 | 27.4 | 0.00 | 0.00 | 0.00 | 64 | 1014.0 |
| 20260906030056 | 31 | 135 | 12.9 | 27.4 | 0.00 | 0.00 | 0.00 | 61 | 1012.1 |
| 20260906030005 | 31 | 159 | 12.9 | 22.5 | 0.00 | 0.00 | 0.00 | 62 | 1013.7 |
| 20260906024602 | 31 | 151 | 12.9 | 22.5 | 0.00 | 0.00 | 0.00 | 56 | 1011.7 |
| 20260906024501 | 31 | 115 | 12.9 | 22.5 | 0.00 | 0.00 | 0.00 | 56 | 1013.3 |
| 20260906023101 | 32 | 133 | 6.4 | 17.7 | 0.00 | 0.00 | 0.00 | 53 | 1012.9 |
| 20260906023053 | 32 | 167 | 8.0 | 17.7 | 0.00 | 0.00 | 0.00 | 52 | 1011.2 |
| 20260906021606 | 31 | 179 | 9.7 | 20.9 | 0.00 | 0.00 | 0.00 | 51 | 1012.6 |
| 20260906021553 | 31 | 142 | 8.0 | 22.5 | 0.00 | 0.00 | 0.00 | 50 | 1010.9 |
| 20260906020105 | 31 | 129 | 3.2 | 9.7 | 0.00 | 0.00 | 0.00 | 52 | 1010.4 |
| 20260906014559 | 31 | 98 | 4.8 | 9.7 | 0.00 | 0.00 | 0.00 | 52 | 1012.0 |
| 20260906014555 | 31 | 132 | 3.2 | 6.4 | 0.00 | 0.00 | 0.00 | 51 | 1010.2 |
| 20260906013058 | 32 | 140 | 3.2 | 6.4 | 0.00 | 0.00 | 0.00 | 51 | 1012.0 |
| 20260906013053 | 32 | 140 | 3.2 | 6.4 | 0.00 | 0.00 | 0.00 | 50 | 1010.2 |
| 20260906011558 | 32 | 145 | 3.2 | 6.4 | 0.00 | 0.00 | 0.00 | 51 | 1011.7 |
| 20260906011553 | 32 | 136 | 3.2 | 6.4 | 0.00 | 0.00 | 0.00 | 50 | 1010.0 |
| 20260906010056 | 32 | 121 | 1.6 | 6.4 | 0.00 | 0.00 | 0.00 | 51 | 1011.7 |
| 20260906010053 | 32 | 121 | 1.6 | 6.4 | 0.00 | 0.00 | 0.00 | 50 | 1010.1 |
| 20260906004557 | 33 | 155 | 1.6 | 4.8 | 0.00 | 0.00 | 0.00 | 50 | 1011.7 |
| 20260906003057 | 33 | 118 | 3.2 | 12.9 | 0.00 | 0.00 | 0.00 | 48 | 1009.9 |
| 20260906001557 | 34 | 109 | 3.2 | 14.5 | 0.00 | 0.00 | 0.00 | 48 | 1009.8 |
| 20260906001555 | 34 | 105 | 4.8 | 14.5 | 0.00 | 0.00 | 0.00 | 49 | 1011.5 |
| 20260906000054 | 34 | 142 | 6.4 | 16.1 | 0.00 | 0.00 | 0.00 | 49 | 1011.6 |
| 20260906000050 | 34 | 140 | 8.0 | 16.1 | 0.00 | 0.00 | 0.00 | 49 | 1009.8 |
| 20260905234558 | 35 | 184 | 6.4 | 16.1 | 0.00 | 0.00 | 0.00 | 48 | 1009.8 |
| 20260905234553 | 35 | 195 | 8.0 | 14.5 | 0.00 | 0.00 | 0.00 | 49 | 1011.7 |
| 20260905233054 | 35 | 0 | 3.2 | 11.3 | 0.00 | 0.00 | 0.00 | 47 | 1009.8 |
| 20260905231558 | 34 | 101 | 1.6 | 12.9 | 0.00 | 0.00 | 0.00 | 48 | 1009.8 |
| 20260905231552 | 35 | 99 | 0.0 | 8.0 | 0.00 | 0.00 | 0.00 | 48 | 1011.6 |
| 20260905230054 | 35 | 103 | 0.0 | 14.5 | 0.00 | 0.00 | 0.00 | 47 | 1009.9 |
| 20260905224605 | 34 | 67 | 4.8 | 14.5 | 0.00 | 0.00 | 0.00 | 47 | 1009.9 |
| 20260905224603 | 34 | 55 | 4.8 | 14.5 | 0.00 | 0.00 | 0.00 | 48 | 1011.7 |
| 20260905223054 | 34 | 148 | 3.2 | 14.5 | 0.00 | 0.00 | 0.00 | 47 | 1010.0 |
| 20260905223049 | 34 | 148 | 3.2 | 12.9 | 0.00 | 0.00 | 0.00 | 48 | 1011.9 |
| 20260905221602 | 35 | 121 | 6.4 | 19.3 | 0.00 | 0.00 | 0.00 | 51 | 1010.1 |
| 20260905221557 | 35 | 119 | 4.8 | 14.5 | 0.00 | 0.00 | 0.00 | 51 | 1012.0 |
| 20260905214556 | 36 | 350 | 3.2 | 14.5 | 0.00 | 0.00 | 0.00 | 50 | 1010.0 |
| 20260905214545 | 36 | 355 | 4.8 | 8.0 | 0.00 | 0.00 | 0.00 | 50 | 1011.8 |
| 20260905213053 | 36 | 110 | 8.0 | 16.1 | 0.00 | 0.00 | 0.00 | 49 | 1010.1 |
| 20260905213039 | 36 | 135 | 8.0 | 16.1 | 0.00 | 0.00 | 0.00 | 50 | 1012.1 |
| 20260905211629 | 35 | 80 | 6.4 | 14.5 | 0.00 | 0.00 | 0.00 | 50 | 1010.4 |
| 20260905211536 | 35 | 60 | 6.4 | 14.5 | 0.00 | 0.00 | 0.00 | 50 | 1012.3 |
| 20260905210056 | 35 | 101 | 11.3 | 19.3 | 0.00 | 0.00 | 0.00 | 50 | 1010.7 |
| 20260905210033 | 35 | 109 | 12.9 | 19.3 | 0.00 | 0.00 | 0.00 | 51 | 1012.4 |
| 20260905204556 | 35 | 86 | 9.7 | 19.3 | 0.00 | 0.00 | 0.00 | 54 | 1010.8 |
| 20260905204532 | 35 | 86 | 9.7 | 19.3 | 0.00 | 0.00 | 0.00 | 55 | 1012.5 |
| 20260905203114 | 35 | 185 | 4.8 | 17.7 | 0.00 | 0.00 | 0.00 | 53 | 1011.1 |
| 20260905203028 | 35 | 188 | 8.0 | 17.7 | 0.00 | 0.00 | 0.00 | 53 | 1012.8 |
| 20260905201601 | 35 | 128 | 9.7 | 20.9 | 0.00 | 0.00 | 0.00 | 53 | 1011.4 |
| 20260905201525 | 35 | 128 | 9.7 | 20.9 | 0.00 | 0.00 | 0.00 | 53 | 1013.1 |
| 20260905200100 | 35 | 165 | 4.8 | 16.1 | 0.00 | 0.00 | 0.00 | 53 | 1011.6 |
| 20260905200025 | 35 | 166 | 6.4 | 16.1 | 0.00 | 0.00 | 0.00 | 53 | 1013.4 |
| 20260905194548 | 34 | 0 | 0.0 | 16.1 | 0.00 | 0.00 | 0.00 | 57 | 1012.1 |
| 20260905194518 | 34 | 40 | 0.0 | 16.1 | 0.00 | 0.00 | 0.00 | 57 | 1014.0 |
| 20260905193055 | 33 | 175 | 4.8 | 12.9 | 0.00 | 0.00 | 0.00 | 54 | 1012.3 |
| 20260905193017 | 33 | 162 | 6.4 | 12.9 | 0.00 | 0.00 | 0.00 | 55 | 1014.1 |
| 20260905191551 | 34 | 138 | 1.6 | 17.7 | 0.00 | 0.00 | 0.00 | 55 | 1012.6 |
| 20260905191515 | 34 | 86 | 1.6 | 17.7 | 0.00 | 0.00 | 0.00 | 55 | 1014.5 |
| 20260905190054 | 34 | 136 | 6.4 | 16.1 | 0.00 | 0.00 | 0.00 | 55 | 1012.9 |
| 20260905190014 | 34 | 175 | 6.4 | 14.5 | 0.00 | 0.00 | 0.00 | 56 | 1014.8 |
| 20260905184603 | 33 | 264 | 3.2 | 16.1 | 0.00 | 0.00 | 0.00 | 57 | 1013.1 |
| 20260905184512 | 33 | 276 | 3.2 | 16.1 | 0.00 | 0.00 | 0.00 | 59 | 1014.9 |
| 20260905183058 | 33 | 145 | 6.4 | 16.1 | 0.00 | 0.00 | 0.00 | 60 | 1013.2 |
| 20260905183009 | 33 | 115 | 6.4 | 16.1 | 0.00 | 0.00 | 0.00 | 60 | 1015.1 |
| 20260905181609 | 33 | 146 | 8.0 | 17.7 | 0.00 | 0.00 | 0.00 | 62 | 1013.4 |
| 20260905181508 | 33 | 132 | 8.0 | 16.1 | 0.00 | 0.00 | 0.00 | 62 | 1015.3 |
| 20260905180054 | 32 | 174 | 3.2 | 12.9 | 0.00 | 0.00 | 0.00 | 63 | 1013.6 |
| 20260905180002 | 32 | 152 | 3.2 | 12.9 | 0.00 | 0.00 | 0.00 | 64 | 1015.5 |
| 20260905174552 | 32 | 126 | 4.8 | 20.9 | 0.00 | 0.00 | 0.00 | 65 | 1013.8 |
| 20260905174502 | 32 | 156 | 4.8 | 20.9 | 0.00 | 0.00 | 0.00 | 65 | 1015.6 |
| 20260905173057 | 32 | 146 | 8.0 | 19.3 | 0.00 | 0.00 | 0.00 | 64 | 1014.0 |
| 20260905173001 | 32 | 140 | 6.4 | 19.3 | 0.00 | 0.00 | 0.00 | 65 | 1015.8 |
| 20260905171558 | 32 | 134 | 3.2 | 16.1 | 0.00 | 0.00 | 0.00 | 67 | 1015.9 |
| 20260905171554 | 32 | 121 | 3.2 | 11.3 | 0.00 | 0.00 | 0.00 | 66 | 1014.3 |
| 20260905170101 | 32 | 175 | 4.8 | 17.7 | 0.00 | 0.00 | 0.00 | 67 | 1016.0 |
| 20260905170053 | 32 | 230 | 4.8 | 17.7 | 0.00 | 0.00 | 0.00 | 67 | 1014.5 |
| 20260905164557 | 31 | 177 | 6.4 | 17.7 | 0.00 | 0.00 | 0.00 | 68 | 1014.5 |
| 20260905164554 | 31 | 172 | 4.8 | 14.5 | 0.00 | 0.00 | 0.00 | 69 | 1016.1 |
| 20260905163054 | 31 | 143 | 6.4 | 17.7 | 0.00 | 0.00 | 0.00 | 72 | 1014.7 |
| 20260905163050 | 31 | 142 | 6.4 | 17.7 | 0.00 | 0.00 | 0.00 | 72 | 1016.2 |
| 20260905161551 | 30 | 161 | 6.4 | 16.1 | 0.00 | 0.00 | 0.00 | 74 | 1014.7 |
| 20260905161547 | 30 | 180 | 4.8 | 16.1 | 0.00 | 0.00 | 0.00 | 75 | 1016.4 |
| 20260905160133 | 30 | 146 | 3.2 | 16.1 | 0.00 | 0.00 | 0.00 | 76 | 1014.6 |
| 20260905160114 | 30 | 167 | 1.6 | 11.3 | 0.00 | 0.00 | 0.00 | 76 | 1016.4 |
| 20260905154554 | 29 | 102 | 4.8 | 19.3 | 0.00 | 0.00 | 0.00 | 80 | 1014.6 |
| 20260905154548 | 29 | 121 | 3.2 | 16.1 | 0.00 | 0.00 | 0.00 | 80 | 1016.3 |
| 20260905153051 | 28 | 139 | 6.4 | 16.1 | 0.00 | 0.00 | 0.00 | 81 | 1014.6 |
| 20260905153041 | 28 | 139 | 6.4 | 11.3 | 0.00 | 0.00 | 0.00 | 81 | 1016.2 |
| 20260905151557 | 28 | 155 | 3.2 | 11.3 | 0.00 | 0.00 | 0.00 | 81 | 1014.6 |
| 20260905151541 | 28 | 136 | 4.8 | 11.3 | 0.00 | 0.00 | 0.00 | 81 | 1016.2 |
| 20260905150058 | 28 | 221 | 3.2 | 11.3 | 0.00 | 0.00 | 0.00 | 82 | 1014.6 |
| 20260905150038 | 28 | 137 | 1.6 | 11.3 | 0.00 | 0.00 | 0.00 | 83 | 1016.2 |
| 20260905144557 | 27 | 0 | 6.4 | 12.9 | 0.00 | 0.00 | 0.00 | 85 | 1014.6 |
| 20260905144536 | 27 | 138 | 4.8 | 12.9 | 0.00 | 0.00 | 0.00 | 85 | 1016.2 |
| 20260905143052 | 27 | 162 | 1.6 | 9.7 | 0.00 | 0.00 | 0.00 | 84 | 1014.5 |
| 20260905143035 | 27 | 162 | 1.6 | 8.0 | 0.00 | 0.00 | 0.00 | 85 | 1016.2 |
| 20260905141553 | 27 | 143 | 0.0 | 9.7 | 0.00 | 0.00 | 0.00 | 85 | 1014.4 |
| 20260905141540 | 27 | 143 | 0.0 | 9.7 | 0.00 | 0.00 | 0.00 | 85 | 1016.2 |
| 20260905140058 | 27 | 157 | 0.0 | 9.7 | 0.00 | 0.00 | 0.00 | 84 | 1014.2 |
| 20260905140036 | 27 | 157 | 1.6 | 6.4 | 0.00 | 0.00 | 0.00 | 84 | 1016.2 |
| 20260905134556 | 27 | 158 | 1.6 | 8.0 | 0.00 | 0.00 | 0.00 | 86 | 1014.2 |
| 20260905134535 | 27 | 158 | 3.2 | 8.0 | 0.00 | 0.00 | 0.00 | 86 | 1015.8 |
| 20260905133052 | 26 | 190 | 3.2 | 11.3 | 0.00 | 0.00 | 0.00 | 88 | 1014.0 |
| 20260905133031 | 26 | 190 | 3.2 | 9.7 | 0.00 | 0.00 | 0.00 | 89 | 1015.7 |
| 20260905131605 | 25 | 0 | 0.0 | 3.2 | 0.00 | 0.00 | 0.00 | 91 | 1013.8 |
| 20260905131529 | 25 | 136 | 0.0 | 3.2 | 0.00 | 0.00 | 0.00 | 92 | 1015.7 |
| 20260905130059 | 25 | 0 | 0.0 | 1.6 | 0.00 | 0.00 | 0.00 | 91 | 1013.8 |
| 20260905130028 | 25 | 136 | 0.0 | 1.6 | 0.00 | 0.00 | 0.00 | 92 | 1015.4 |
| 20260905124554 | 25 | 0 | 0.0 | 4.8 | 0.00 | 0.00 | 0.00 | 91 | 1013.6 |
| 20260905124537 | 25 | 136 | 0.0 | 4.8 | 0.00 | 0.00 | 0.00 | 91 | 1015.2 |
| 20260905123052 | 25 | 0 | 0.0 | 0.0 | 0.00 | 0.00 | 0.00 | 90 | 1013.4 |
| 20260905123026 | 25 | 129 | 0.0 | 0.0 | 0.00 | 0.00 | 0.00 | 91 | 1015.1 |
| 20260905121555 | 25 | 0 | 0.0 | 3.2 | 0.00 | 0.00 | 0.00 | 90 | 1013.3 |
| 20260905121526 | 25 | 105 | 0.0 | 3.2 | 0.00 | 0.00 | 0.00 | 90 | 1014.9 |
| 20260905120113 | 25 | 86 | 1.6 | 6.4 | 0.00 | 0.00 | 0.00 | 90 | 1013.4 |
| 20260905120025 | 25 | 86 | 1.6 | 6.4 | 0.00 | 0.00 | 0.00 | 90 | 1014.9 |
| 20260905114558 | 25 | 121 | 1.6 | 6.4 | 0.00 | 0.00 | 0.00 | 90 | 1013.3 |
| 20260905114526 | 25 | 121 | 1.6 | 6.4 | 0.00 | 0.00 | 0.00 | 91 | 1014.9 |
| 20260905113052 | 25 | 132 | 1.6 | 4.8 | 0.00 | 0.00 | 0.00 | 90 | 1013.1 |
| 20260905113024 | 25 | 132 | 1.6 | 4.8 | 0.00 | 0.00 | 0.00 | 91 | 1014.7 |
| 20260905111608 | 25 | 0 | 0.0 | 4.8 | 0.00 | 0.00 | 0.00 | 90 | 1013.1 |
| 20260905111523 | 25 | 113 | 1.6 | 4.8 | 0.00 | 0.00 | 0.00 | 91 | 1014.7 |
| 20260905110056 | 25 | 0 | 0.0 | 3.2 | 0.00 | 0.00 | 0.00 | 90 | 1012.9 |
| 20260905110022 | 25 | 155 | 0.0 | 3.2 | 0.00 | 0.00 | 0.00 | 91 | 1014.7 |
| 20260905104557 | 25 | 0 | 0.0 | 4.8 | 0.00 | 0.00 | 0.00 | 90 | 1013.0 |
| 20260905104520 | 25 | 155 | 0.0 | 3.2 | 0.00 | 0.00 | 0.00 | 90 | 1014.6 |
| 20260905103054 | 26 | 0 | 0.0 | 3.2 | 0.00 | 0.00 | 0.00 | 89 | 1013.0 |
| 20260905103025 | 26 | 180 | 0.0 | 3.2 | 0.00 | 0.00 | 0.00 | 90 | 1014.7 |
| 20260905101555 | 26 | 134 | 0.0 | 6.4 | 0.00 | 0.00 | 0.00 | 89 | 1012.8 |
| 20260905101519 | 26 | 134 | 1.6 | 4.8 | 0.00 | 0.00 | 0.00 | 89 | 1014.5 |
| 20260905100101 | 26 | 0 | 1.6 | 8.0 | 0.00 | 0.00 | 0.00 | 89 | 1012.9 |
| 20260905100018 | 26 | 153 | 0.0 | 6.4 | 0.00 | 0.00 | 0.00 | 89 | 1014.6 |
| 20260905094554 | 26 | 146 | 1.6 | 8.0 | 0.00 | 0.00 | 0.00 | 88 | 1013.0 |
| 20260905094518 | 26 | 147 | 1.6 | 8.0 | 0.00 | 0.00 | 0.00 | 89 | 1014.7 |
| 20260905093056 | 26 | 164 | 1.6 | 9.7 | 0.00 | 0.00 | 0.00 | 88 | 1012.8 |
| 20260905093017 | 26 | 164 | 1.6 | 8.0 | 0.00 | 0.00 | 0.00 | 89 | 1014.6 |
| 20260905091618 | 26 | 140 | 3.2 | 11.3 | 0.00 | 0.00 | 0.00 | 89 | 1012.7 |
| 20260905091547 | 26 | 144 | 4.8 | 11.3 | 0.00 | 0.00 | 0.00 | 89 | 1014.5 |
| 20260905090106 | 26 | 165 | 1.6 | 8.0 | 0.00 | 0.00 | 0.00 | 88 | 1012.7 |
| 20260905090015 | 26 | 166 | 1.6 | 6.4 | 0.00 | 0.00 | 0.00 | 89 | 1014.4 |
| 20260905084606 | 26 | 141 | 1.6 | 11.3 | 0.00 | 0.00 | 0.00 | 88 | 1012.7 |
| 20260905084513 | 26 | 141 | 1.6 | 8.0 | 0.00 | 0.00 | 0.00 | 89 | 1014.5 |
| 20260905083052 | 26 | 109 | 3.2 | 8.0 | 0.00 | 0.00 | 0.00 | 88 | 1013.0 |
| 20260905083014 | 26 | 128 | 3.2 | 8.0 | 0.00 | 0.00 | 0.00 | 88 | 1014.7 |
| 20260905081552 | 26 | 120 | 1.6 | 4.8 | 0.00 | 0.00 | 0.00 | 87 | 1013.0 |
| 20260905081511 | 26 | 121 | 1.6 | 4.8 | 0.00 | 0.00 | 0.00 | 88 | 1014.7 |
| 20260905080055 | 26 | 133 | 1.6 | 11.3 | 0.00 | 0.00 | 0.00 | 87 | 1013.0 |
| 20260905080009 | 26 | 148 | 3.2 | 9.7 | 0.00 | 0.00 | 0.00 | 87 | 1014.7 |
| 20260905074556 | 26 | 146 | 3.2 | 11.3 | 0.00 | 0.00 | 0.00 | 86 | 1013.0 |
| 20260905074512 | 26 | 131 | 3.2 | 11.3 | 0.00 | 0.00 | 0.00 | 87 | 1014.7 |
| 20260905073053 | 26 | 118 | 3.2 | 11.3 | 0.00 | 0.00 | 0.00 | 86 | 1013.4 |
| 20260905073006 | 26 | 115 | 3.2 | 9.7 | 0.00 | 0.00 | 0.00 | 86 | 1014.9 |
| 20260905071555 | 26 | 173 | 3.2 | 12.9 | 0.00 | 0.00 | 0.00 | 85 | 1013.5 |
| 20260905071505 | 26 | 111 | 4.8 | 12.9 | 0.00 | 0.00 | 0.00 | 86 | 1015.1 |
| 20260905070101 | 27 | 158 | 3.2 | 12.9 | 0.00 | 0.00 | 0.00 | 85 | 1013.5 |
| 20260905070004 | 27 | 131 | 3.2 | 12.9 | 0.00 | 0.00 | 0.00 | 85 | 1015.1 |
| 20260905064556 | 27 | 167 | 4.8 | 14.5 | 0.00 | 0.00 | 0.00 | 84 | 1013.6 |
| 20260905064503 | 27 | 163 | 4.8 | 14.5 | 0.00 | 0.00 | 0.00 | 85 | 1015.1 |
| 20260905063100 | 27 | 155 | 4.8 | 16.1 | 0.00 | 0.00 | 0.00 | 83 | 1013.5 |
| 20260905063001 | 27 | 97 | 4.8 | 14.5 | 0.00 | 0.00 | 0.00 | 84 | 1015.1 |
| 20260905061622 | 27 | 158 | 6.4 | 17.7 | 0.00 | 0.00 | 0.00 | 83 | 1015.1 |
| 20260905061620 | 27 | 111 | 4.8 | 17.7 | 0.00 | 0.00 | 0.00 | 83 | 1013.5 |
| 20260905060116 | 27 | 121 | 8.0 | 19.3 | 0.00 | 0.00 | 0.00 | 82 | 1015.2 |
| 20260905054557 | 27 | 140 | 4.8 | 16.1 | 0.00 | 0.00 | 0.00 | 81 | 1015.1 |
| 20260905054551 | 27 | 148 | 8.0 | 16.1 | 0.00 | 0.00 | 0.00 | 80 | 1013.6 |
| 20260905053059 | 27 | 133 | 4.8 | 16.1 | 0.00 | 0.00 | 0.00 | 79 | 1013.6 |
| 20260905053056 | 27 | 132 | 4.8 | 16.1 | 0.00 | 0.00 | 0.00 | 79 | 1015.2 |
| 20260905051556 | 28 | 119 | 6.4 | 14.5 | 0.00 | 0.00 | 0.00 | 76 | 1013.6 |
| 20260905051552 | 28 | 120 | 6.4 | 14.5 | 0.00 | 0.00 | 0.00 | 77 | 1015.3 |